Location: Cactus School
(34.5700°N, 118.0931°W)
Time: 17:52:50
(UTC-08:00)

OTV 5 (USA 277) - Visible Passes

Search period start: 21 January 2018 00:00
Search period end: 31 January 2018 00:00
Orbit: 404 x 417 km, 43.0° (Epoch: 07 September)

Date Brightness Start Highest point End Pass type
(mag) Time Alt. Az. Time Alt. Az. Time Alt. Az.
21 Jan ? 18:01:28 10° SSW 18:04:21 26° SE 18:06:10 17° E visible
21 Jan ? 19:38:18 10° W 19:38:56 14° W 19:38:56 14° W visible
22 Jan ? 18:47:05 10° WSW 18:50:26 68° NNW 18:50:30 68° NNW visible
23 Jan ? 17:56:00 10° SW 17:59:22 75° SSE 18:02:01 15° ENE visible
23 Jan ? 19:34:02 10° WNW 19:34:47 14° WNW 19:34:47 14° WNW visible
24 Jan ? 18:42:38 10° W 18:45:43 33° NNW 18:46:14 31° N visible
25 Jan ? 17:51:19 10° W 17:54:34 45° NNW 17:57:40 11° NE visible
25 Jan ? 19:29:51 10° NW 19:30:25 13° NW 19:30:25 13° NW visible
26 Jan ? 18:38:28 10° WNW 18:41:10 22° N 18:41:49 21° N visible
27 Jan ? 17:47:03 10° WNW 17:49:57 26° NNW 17:52:50 10° NE visible
27 Jan ? 19:25:27 10° NW 19:25:57 12° NW 19:25:57 12° NW visible
28 Jan ? 18:34:12 10° NW 18:36:42 19° N 18:37:20 18° NNE visible
29 Jan ? 17:42:53 10° NW 17:45:26 20° N 17:48:00 10° NE visible
29 Jan ? 19:20:40 10° NW 19:21:29 15° NW 19:21:29 15° NW visible
30 Jan ? 18:29:36 10° NW 18:32:14 21° N 18:32:55 20° NNE visible
